Satellite-Ground Cal/Val Site Overpasses Predictions

Prediction of Satellite NPP Overpassing Cal/Val Site: Antarctic Dome C

Ground Cal/Val Site Location: Latitude: -75.10, Longitude: 123.35; Satellite-Ground Site NADIR distance within 100 km.

Table of predicted overpasses for the next 14.0 days since TLE Epoch: 2/16/2018
Interval Starting Time Ending Time Minimum Distance Time Minimum Distance (km)
1 02/17/2018 14:54:35 02/17/2018 14:55:04 02/17/2018 14:54:50 20.15
2 02/18/2018 14:35:53 02/18/2018 14:36:07 02/18/2018 14:36:00 86.97
3 02/19/2018 07:37:24 02/19/2018 07:37:51 02/19/2018 07:37:38 34.81
4 02/20/2018 07:18:38 02/20/2018 07:18:57 02/20/2018 07:18:48 75.44
5 02/22/2018 15:00:51 02/22/2018 15:01:15 02/22/2018 15:01:03 56.74
6 02/23/2018 14:41:59 02/23/2018 14:42:24 02/23/2018 14:42:12 52.45
7 02/24/2018 07:43:40 02/24/2018 07:44:01 02/24/2018 07:43:50 69.68
8 02/25/2018 07:24:46 02/25/2018 07:25:13 02/25/2018 07:25:00 38.46
9 02/27/2018 15:07:10 02/27/2018 15:07:19 02/27/2018 15:07:15 94.05
10 02/28/2018 14:48:10 02/28/2018 14:48:39 02/28/2018 14:48:24 17.27


NCC Satellite Cal/Val Overpasses Prediction Service
